FW0538 Weather Reports


Display with metric or nautical units.
time (UTC)temp
F
wind
direction
speed
MPH
gust
MPH
rain 1hr
in
rain 24hr
in
rain mn
in
humidity
%
barometer
mb
20260901084542 64 256 11.0 16.0 0.00 0.00 0.00 35 1005.6
20260901083040 63 205 3.0 7.0 0.00 0.00 0.00 37 1005.9
20260901081538 64 264 3.0 10.0 0.00 0.00 0.00 36 1005.8
20260901080037 64 264 0.0 3.0 0.00 0.00 0.00 35 1005.8
20260901074535 64 338 0.0 1.0 0.00 0.00 0.00 36 1005.8
20260901073038 64 338 0.0 1.0 0.00 0.00 0.00 38 1005.8
20260901071533 64 338 0.0 2.0 0.00 0.00 0.00 37 1005.8
20260901070029 65 48 0.0 3.0 0.00 0.00 0.00 38 1005.8
20260901064536 66 282 0.0 8.0 0.00 0.00 0.00 36 1005.8
20260901063034 66 235 8.0 15.0 0.00 0.00 0.00 35 1005.8
20260901061528 66 223 11.0 17.0 0.00 0.00 0.00 36 1005.5
20260901060027 65 342 0.0 4.0 0.00 0.00 0.00 38 1005.9
20260901054528 67 70 3.0 12.0 0.00 0.00 0.00 37 1006.0
20260901053026 67 252 10.0 21.0 0.00 0.00 0.00 36 1005.6
20260901051528 67 243 11.0 21.0 0.00 0.00 0.00 37 1005.6
20260901050025 67 238 12.0 18.0 0.00 0.00 0.00 37 1005.5
20260901044526 67 274 5.0 11.0 0.00 0.00 0.00 39 1005.8
20260901043025 67 293 4.0 14.0 0.00 0.00 0.00 40 1005.6
20260901041526 67 288 6.0 14.0 0.00 0.00 0.00 40 1005.6
20260901040027 67 62 8.0 16.0 0.00 0.00 0.00 40 1005.2
20260901034522 68 219 7.0 14.0 0.00 0.00 0.00 38 1005.0
20260901033022 68 1 9.0 17.0 0.00 0.00 0.00 38 1005.1
20260901031521 69 311 5.0 13.0 0.00 0.00 0.00 37 1005.1
20260901030020 70 252 12.0 24.0 0.00 0.00 0.00 37 1004.5
20260901024527 70 257 13.0 27.0 0.00 0.00 0.00 37 1004.4
20260901023019 71 237 18.0 26.0 0.00 0.00 0.00 36 1004.2
20260901021518 72 272 14.0 29.0 0.00 0.00 0.00 35 1004.3
20260901020017 73 277 14.0 29.0 0.00 0.00 0.00 34 1004.0
20260901014517 74 255 16.0 24.0 0.00 0.00 0.00 33 1004.1
20260901013021 75 238 13.0 25.0 0.00 0.00 0.00 32 1003.9
20260901011519 76 221 14.0 22.0 0.00 0.00 0.00 31 1003.9
20260901010015 77 261 14.0 21.0 0.00 0.00 0.00 30 1003.9
20260901004529 78 221 18.0 24.0 0.00 0.00 0.00 29 1003.7
20260901003018 79 245 16.0 21.0 0.00 0.00 0.00 28 1003.8
20260901001523 80 244 15.0 21.0 0.00 0.00 0.00 27 1003.9
20260901000015 80 249 12.0 19.0 0.00 0.00 0.00 25 1003.9
20260831234512 81 273 8.0 18.0 0.00 0.00 0.00 24 1004.1
20260831233009 82 273 9.0 16.0 0.00 0.00 0.00 24 1004.1
20260831231508 82 235 9.0 17.0 0.00 0.00 0.00 23 1004.2
20260831230008 82 251 11.0 17.0 0.00 0.00 0.00 23 1004.1
20260831224506 83 271 3.0 12.0 0.00 0.00 0.00 22 1004.6
20260831223006 83 198 7.0 15.0 0.00 0.00 0.00 22 1004.7
20260831221506 84 202 5.0 14.0 0.00 0.00 0.00 21 1004.6
20260831220003 82 114 4.0 15.0 0.00 0.00 0.00 23 1005.0
20260831214510 84 126 6.0 16.0 0.00 0.00 0.00 23 1004.8
20260831213001 85 185 12.0 19.0 0.00 0.00 0.00 21 1005.1
20260831211601 84 176 12.0 18.0 0.00 0.00 0.00 21 1005.2
20260831210055 83 131 6.0 13.0 0.00 0.00 0.00 22 1005.6
20260831204558 83 190 7.0 14.0 0.00 0.00 0.00 22 1005.9
20260831203052 83 91 3.0 12.0 0.00 0.00 0.00 22 1006.3
20260831201550 81 220 4.0 14.0 0.00 0.00 0.00 21 1006.6
20260831200049 81 174 4.0 9.0 0.00 0.00 0.00 22 1006.7
20260831194546 81 148 10.0 17.0 0.00 0.00 0.00 21 1007.0
20260831193042 79 162 8.0 13.0 0.00 0.00 0.00 21 1007.2
20260831191538 79 178 6.0 10.0 0.00 0.00 0.00 22 1007.5
20260831190054 78 62 2.0 9.0 0.00 0.00 0.00 24 1007.8
20260831184538 78 174 5.0 11.0 0.00 0.00 0.00 22 1007.9
20260831183046 78 139 3.0 10.0 0.00 0.00 0.00 25 1007.9
20260831181530 77 118 1.0 5.0 0.00 0.00 0.00 28 1008.0
20260831180027 76 99 1.0 6.0 0.00 0.00 0.00 31 1008.1
20260831174524 75 91 0.0 4.0 0.00 0.00 0.00 32 1008.2
20260831173022 73 221 2.0 7.0 0.00 0.00 0.00 33 1008.3
20260831171520 72 80 2.0 5.0 0.00 0.00 0.00 34 1008.5
20260831170018 72 212 1.0 6.0 0.00 0.00 0.00 34 1008.6
20260831164514 72 156 0.0 5.0 0.00 0.00 0.00 35 1008.7
20260831163033 71 140 2.0 4.0 0.00 0.00 0.00 35 1008.8
20260831161513 69 193 0.0 2.0 0.00 0.00 0.00 35 1008.9
20260831160008 68 158 0.0 2.0 0.00 0.00 0.00 38 1009.2
20260831154504 67 158 1.0 3.0 0.00 0.00 0.00 37 1009.3
20260831153002 67 152 0.0 0.0 0.00 0.00 0.00 36 1009.2
20260831151558 65 9 0.0 1.0 0.00 0.00 0.00 36 1009.3
20260831150054 62 9 0.0 0.0 0.00 0.00 0.00 40 1009.3
20260831144554 59 8 0.0 1.0 0.00 0.00 0.00 41 1009.3
20260831143101 56 11 0.0 0.0 0.00 0.00 0.00 43 1009.0
20260831141554 55 15 0.0 2.0 0.00 0.00 0.00 44 1008.9
20260831140052 55 354 0.0 1.0 0.00 0.00 0.00 45 1008.9
20260831134552 54 354 0.0 2.0 0.00 0.00 0.00 46 1008.8
20260831133054 54 4 0.0 3.0 0.00 0.00 0.00 45 1008.8
20260831131551 54 2 0.0 3.0 0.00 0.00 0.00 45 1008.7
20260831130054 54 349 1.0 3.0 0.00 0.00 0.00 45 1008.7
20260831124551 54 352 2.0 4.0 0.00 0.00 0.00 46 1008.8
20260831123046 54 351 0.0 3.0 0.00 0.00 0.00 46 1008.9
20260831121545 55 8 1.0 3.0 0.00 0.00 0.00 44 1008.9
20260831120054 54 24 1.0 3.0 0.00 0.00 0.00 46 1008.9
20260831114543 55 31 1.0 4.0 0.00 0.00 0.00 46 1008.9
20260831113050 55 20 0.0 2.0 0.00 0.00 0.00 45 1009.0
20260831111540 56 65 0.0 3.0 0.00 0.00 0.00 44 1009.1
20260831110038 56 329 0.0 3.0 0.00 0.00 0.00 45 1009.2
20260831104537 57 356 1.0 4.0 0.00 0.00 0.00 42 1009.2
20260831103035 57 323 2.0 4.0 0.00 0.00 0.00 43 1009.2
20260831101534 56 318 1.0 4.0 0.00 0.00 0.00 44 1009.2
20260831100031 57 309 1.0 5.0 0.00 0.00 0.00 43 1009.2
20260831094532 58 332 0.0 4.0 0.00 0.00 0.00 43 1009.3
20260831093028 59 312 3.0 5.0 0.00 0.00 0.00 42 1009.2
20260831091528 58 314 1.0 3.0 0.00 0.00 0.00 43 1009.2
20260831090026 59 17 0.0 3.0 0.00 0.00 0.00 44 1009.2